GLOBALSTAR M064 [+]

Last updated on Wed May 04 2016 07:38:51 GMT+0000 (Coordinated Universal Time)

1 26084U 00008D 16125.17686817 -.00000097 00000-0 -19441-3 0 9997 2 26084 52.0054 21.7019 0002138 122.2626 237.8414 11.88463314771141

Satellite not in orbit